Weather History for Carson City, NV

Change the Weather History Date:

Saturday, July 20, 2013

  Actual Average Record
Temperature  
Mean Temperature 80 °F -  
Max Temperature 102 °F 88 °F 102 °F (2013)
Min Temperature 59 °F 50 °F 51 °F (2011)
Cooling Degree Days 16    
Growing Degree Days 30 (Base 50)    
Moisture  
Dew Point 33 °F    
Average Humidity 20    
Maximum Humidity 42    
Minimum Humidity 5    
Precipitation  
Precipitation 0.00 in - - ()
Sea Level Pressure  
Sea Level Pressure 30.01 in    
Wind  
Wind Speed 3 mph (WSW)    
Max Wind Speed 14 mph    
Max Gust Speed 24 mph    
Visibility 10 miles    
Events      
Averages and records for this station are not official NWS values.
T = Trace of Precipitation, MM = Missing Value Source: NWS Daily Summary

Daily Weather History Graph

Daily Weather History Graph

Search for Another Location

Airport:

Trip Planner

Search our weather history database for the weather conditions in past years. The results will help you decide how hot, cold, wet, or windy it might be!

Date:

Astronomy

Jul. 20, 2013 Rise Set
Actual Time 5:49 AM PDT 8:20 PM PDT
Civil Twilight 5:18 AM PDT 8:51 PM PDT
Nautical Twilight 4:39 AM PDT 9:30 PM PDT
Astronomical Twilight 3:57 AM PDT 10:12 PM PDT
Moon 6:29 PM PDT (7/20) 3:34 AM PDT (7/20)
Length of Visible Light 15h 33m
Length of Day
14h 31m
Waxing Gibbous, 94% of the Moon is Illuminated
Jul 20
Waxing Gibbous
Jul 22
Full
Jul 29
Last Quarter
Aug 6
New
Aug 14
First Quarter

Hourly Weather History & Observations

Time (PDT) Temp. Dew Point Humidity Pressure Visibility Wind Dir Wind Speed Gust Speed Precip Events Conditions
12:15 AM 73.4 °F 33.8 °F 23% 30.06 in 10.0 mi WNW 3.5 mph - N/A   Clear
12:35 AM 73.4 °F 35.6 °F 25% 30.06 in 10.0 mi WSW 3.5 mph - N/A   Clear
12:55 AM 71.6 °F 37.4 °F 29% 30.06 in 10.0 mi ESE 4.6 mph - N/A   Clear
1:15 AM 68.0 °F 37.4 °F 33% 30.06 in 10.0 mi SE 3.5 mph - N/A   Clear
1:35 AM 68.0 °F 35.6 °F 30% 30.06 in 10.0 mi Calm Calm - N/A   Clear
1:55 AM 68.0 °F 35.6 °F 30% 30.06 in 10.0 mi NW 3.5 mph - N/A   Clear
2:15 AM 71.6 °F 37.4 °F 29% 30.06 in 10.0 mi Calm Calm - N/A   Clear
2:35 AM 66.2 °F 37.4 °F 35% 30.06 in 10.0 mi WSW 3.5 mph - N/A   Clear
2:55 AM 64.4 °F 37.4 °F 37% 30.06 in 10.0 mi Calm Calm - N/A   Clear
3:15 AM 66.2 °F 35.6 °F 32% 30.06 in 10.0 mi Calm Calm - N/A   Clear
3:35 AM 68.0 °F 35.6 °F 30% 30.06 in 10.0 mi Calm Calm - N/A   Clear
3:55 AM 68.0 °F 35.6 °F 30% 30.05 in 10.0 mi West 3.5 mph - N/A   Clear
4:15 AM 66.2 °F 35.6 °F 32% 30.06 in 10.0 mi NW 3.5 mph - N/A   Clear
4:35 AM 66.2 °F 35.6 °F 32% 30.06 in 10.0 mi Calm Calm - N/A   Clear
4:55 AM 62.6 °F 35.6 °F 37% 30.06 in 10.0 mi Calm Calm - N/A   Clear
5:15 AM 62.6 °F 35.6 °F 37% 30.06 in 10.0 mi Calm Calm - N/A   Clear
5:35 AM 59.0 °F 35.6 °F 42% 30.07 in 10.0 mi Calm Calm - N/A   Clear
5:55 AM 60.8 °F 37.4 °F 42% 30.07 in 10.0 mi Calm Calm - N/A   Clear
6:15 AM 60.8 °F 35.6 °F 39% 30.07 in 10.0 mi Calm Calm - N/A   Clear
6:35 AM 62.6 °F 37.4 °F 39% 30.07 in 10.0 mi Calm Calm - N/A   Clear
6:55 AM 64.4 °F 37.4 °F 37% 30.07 in 10.0 mi Calm Calm - N/A   Clear
7:15 AM 66.2 °F 37.4 °F 35% 30.07 in 10.0 mi Calm Calm - N/A   Clear
7:35 AM 68.0 °F 35.6 °F 30% 30.07 in 10.0 mi Calm Calm - N/A   Clear
7:55 AM 71.6 °F 35.6 °F 27% 30.08 in 10.0 mi NW 4.6 mph - N/A   Clear
8:15 AM 73.4 °F 35.6 °F 25% 30.08 in 10.0 mi SW 3.5 mph - N/A   Clear
8:35 AM 75.2 °F 37.4 °F 25% 30.08 in 10.0 mi SW 3.5 mph - N/A   Clear
8:55 AM 77.0 °F 35.6 °F 22% 30.08 in 10.0 mi SW 6.9 mph - N/A   Clear
9:15 AM 80.6 °F 33.8 °F 18% 30.07 in 10.0 mi SW 5.8 mph - N/A   Clear
9:35 AM 82.4 °F 37.4 °F 20% 30.07 in 10.0 mi SW 3.5 mph - N/A   Clear
9:55 AM 84.2 °F 39.2 °F 20% 30.06 in 10.0 mi Calm Calm - N/A   Clear
10:15 AM 86.0 °F 39.2 °F 19% 30.06 in 10.0 mi South 3.5 mph - N/A   Clear
10:35 AM 89.6 °F 35.6 °F 15% 30.05 in 10.0 mi Calm Calm - N/A   Clear
10:55 AM 89.6 °F 35.6 °F 15% 30.05 in 10.0 mi North 3.5 mph - N/A   Clear
11:15 AM 91.4 °F 32.0 °F 12% 30.04 in 10.0 mi Calm Calm - N/A   Clear
11:35 AM 93.2 °F 32.0 °F 11% 30.04 in 10.0 mi Calm Calm - N/A   Clear
11:55 AM 95.0 °F 28.4 °F 9% 30.03 in 10.0 mi SW 5.8 mph - N/A   Clear
12:15 PM 95.0 °F 24.8 °F 8% 30.02 in 10.0 mi WSW 3.5 mph - N/A   Clear
12:35 PM 98.6 °F 24.8 °F 7% 30.01 in 10.0 mi SSW 5.8 mph - N/A   Clear
12:55 PM 96.8 °F 21.2 °F 7% 30.01 in 10.0 mi SW 3.5 mph - N/A   Clear
1:15 PM 100.4 °F 23.0 °F 6% 30.00 in 10.0 mi ENE 8.1 mph - N/A   Clear
1:35 PM 100.4 °F 21.2 °F 6% 29.99 in 10.0 mi Calm Calm - N/A   Clear
1:55 PM 100.4 °F 19.4 °F 5% 29.99 in 10.0 mi East 3.5 mph - N/A   Clear
2:15 PM 100.4 °F 19.4 °F 5% 29.98 in 10.0 mi WSW 5.8 mph - N/A   Clear
2:35 PM 100.4 °F 23.0 °F 6% 29.97 in 10.0 mi West 8.1 mph - N/A   Clear
2:55 PM 100.4 °F 23.0 °F 6% 29.96 in 10.0 mi Calm Calm - N/A   Clear
3:15 PM 100.4 °F 23.0 °F 6% 29.95 in 10.0 mi NNE 9.2 mph - N/A   Clear
3:35 PM 100.4 °F 24.8 °F 7% 29.95 in 10.0 mi NW 5.8 mph - N/A   Clear
3:55 PM 102.2 °F 23.0 °F 6% 29.94 in 10.0 mi WNW 9.2 mph 18.4 mph N/A   Clear
4:15 PM 102.2 °F 19.4 °F 5% 29.94 in 10.0 mi NNW 10.4 mph 18.4 mph N/A   Clear
4:35 PM 102.2 °F 23.0 °F 6% 29.94 in 10.0 mi NW 11.5 mph 19.6 mph N/A   Clear
4:55 PM 102.2 °F 28.4 °F 7% 29.94 in 10.0 mi WNW 13.8 mph 19.6 mph N/A   Clear
5:15 PM 102.2 °F 32.0 °F 9% 29.94 in 10.0 mi West 12.7 mph 24.2 mph N/A   Clear
5:35 PM 98.6 °F 32.0 °F 10% 29.95 in 10.0 mi SSW 9.2 mph 16.1 mph N/A   Clear
5:55 PM 96.8 °F 32.0 °F 10% 29.94 in 10.0 mi South 12.7 mph 20.7 mph N/A   Clear
6:15 PM 96.8 °F 32.0 °F 10% 29.95 in 10.0 mi South 11.5 mph 20.7 mph N/A   Clear
6:35 PM 95.0 °F 32.0 °F 11% 29.95 in 10.0 mi SSW 8.1 mph 18.4 mph N/A   Clear
6:55 PM 95.0 °F 32.0 °F 11% 29.95 in 10.0 mi Calm Calm - N/A   Clear
7:15 PM 95.0 °F 37.4 °F 13% 29.95 in 10.0 mi SW 3.5 mph - N/A   Partly Cloudy
7:35 PM 93.2 °F 37.4 °F 14% 29.95 in 10.0 mi SSW 3.5 mph - N/A   Clear
7:55 PM 93.2 °F 37.4 °F 14% 29.96 in 10.0 mi Calm Calm - N/A   Clear
8:15 PM 89.6 °F 39.2 °F 17% 29.95 in 10.0 mi WSW 3.5 mph - N/A   Clear
8:35 PM 89.6 °F 37.4 °F 16% 29.96 in 10.0 mi Calm Calm - N/A   Clear
8:55 PM 86.0 °F 35.6 °F 17% 29.96 in 10.0 mi WNW 3.5 mph - N/A   Clear
9:15 PM 86.0 °F 33.8 °F 15% 29.97 in 10.0 mi North 4.6 mph - N/A   Clear
9:35 PM 84.2 °F 33.8 °F 16% 29.98 in 10.0 mi Calm Calm - N/A   Clear
9:55 PM 82.4 °F 37.4 °F 20% 29.98 in 10.0 mi Calm Calm - N/A   Clear
10:15 PM 82.4 °F 39.2 °F 21% 29.98 in 10.0 mi SW 5.8 mph - N/A   Clear
10:35 PM 80.6 °F 37.4 °F 21% 29.98 in 10.0 mi Calm Calm - N/A   Clear
10:55 PM 80.6 °F 39.2 °F 23% 29.98 in 10.0 mi Calm Calm - N/A   Clear
11:15 PM 78.8 °F 41.0 °F 26% 29.99 in 10.0 mi Calm Calm - N/A   Clear
11:35 PM 78.8 °F 41.0 °F 26% 29.99 in 10.0 mi NE 3.5 mph - N/A   Clear
11:55 PM 78.8 °F 41.0 °F 26% 30.00 in 10.0 mi Calm Calm - N/A   Clear